[[{"header":{"parameterUnit":"m.s-1","parameterCategory":1,"la1":30.2992,"la2":30.254,"lo1":-89.0895,"lo2":-89.0443,"dy":0.0025,"dx":0.0025,"nx":19,"ny":19,"refTime":"2026-05-04T09:00:00:Z","depth":0,"parameterNumber":2,"parameterNumberName":"U-component_of_WINDS"},"data":[0,0,0,0.6226,0.6225,0.6144,0.6143,0.6046,0.6045,0,0,0,0,0,0,0,0,0,0,0,0.6255,0.6254,0.6226,0.6224,0.6144,0.6143,0.6046,0.6045,0,0,0,0,0,0,0,0,0,0,0,0.6255,0.6254,0.6254,0.6224,0.6144,0.6143,0.6046,0.6104,0,0,0,0,0,0,0,0,0,0,0.6182,0.6213,0.6254,0.6254,0.6224,0.6144,0.6143,0.6107,0.6101,0.6085,0,0.6073,0,0.6058,0.6039,0.6038,0,0,0,0.622,0.6218,0.6193,0.6254,0.6223,0.6144,0.6179,0.6104,0.6096,0.6077,0.6072,0.6068,0.6056,0.6038,0.6038,0.5965,0.5965,0,0,0.6225,0.6242,0.6198,0.6188,0.6203,0.6182,0.6176,0.6099,0.6094,0.6071,0.6066,0.6055,0.6037,0.6037,0.5965,0.5965,0,0,0,0.624,0.6245,0.6221,0.6193,0.6178,0.6179,0.6173,0.6098,0.6089,0.6064,0.6053,0.6037,0.6036,0.5965,0.5965,0.5975,0,0,0,0.6243,0.6254,0.6224,0.6233,0.6179,0.6137,0.6174,0.6094,0.6085,0.6054,0.6037,0.6035,0.5965,0.5965,0.5975,0.5976,0,0,0,0.6258,0.6256,0.6246,0.6234,0.62,0.6138,0.6124,0.6092,0.6078,0.6038,0.6035,0.5965,0.5965,0.5975,0.5976,0.5963,0,0,0,0.6279,0.6254,0.6247,0.6215,0.6201,0.6146,0.6124,0.6081,0.6048,0.6036,0.5965,0.5965,0.5975,0.5976,0.5963,0.5955,0.5953,0,0,0.6257,0.6252,0.6232,0.6223,0.6174,0.6156,0.6108,0.606,0.6039,0.5991,0.5988,0.5975,0.5976,0.5963,0.5938,0.5937,0,0,0,0.6231,0.6217,0.62,0.6171,0.6136,0.6106,0.6065,0.6048,0.6006,0.6018,0.5966,0.5966,0.5958,0.5953,0.5952,0.5944,0.5964,0.5964,0.5964,0.6223,0.6201,0.6167,0.6136,0.6108,0.6067,0.6042,0.6012,0.5995,0.5984,0.5969,0.5957,0.5952,0.5951,0.5942,0.5963,0.5963,0.5963,0.5963,0.6189,0.6166,0.6148,0.6109,0.6086,0.6051,0.6012,0.6002,0.5967,0.5965,0.5956,0.5956,0.595,0.5942,0.5963,0.5963,0.5963,0.5963,0.5963,0.6181,0.6166,0.6148,0.6105,0.6075,0.6044,0.6012,0.5991,0.5971,0.5963,0.5945,0.5945,0.5942,0.5956,0.5956,0.5956,0.5956,0.5956,0.5956,0.6179,0.6158,0.6135,0.6099,0.6079,0.605,0.6011,0.599,0.5962,0.5949,0.5949,0.5934,0.5954,0.596,0.5955,0.5956,0.5956,0.5956,0.5956,0.6151,0.6155,0.6119,0.61,0.6056,0.6029,0.6004,0.5964,0.5944,0.5929,0.5917,0.5936,0.5928,0.5929,0.5933,0.5922,0.5922,0.5922,0.5922,0.6144,0.614,0.61,0.607,0.6039,0.6014,0.5974,0.5945,0.5914,0.59,0.5899,0.5904,0.5905,0.5897,0.5898,0.5902,0.5883,0.5883,0.5883,0.6126,0.6118,0.6088,0.6061,0.6027,0.5998,0.596,0.5926,0.5892,0.5881,0.5889,0.5891,0.5898,0.5901,0.5888,0.5891,0.5897,0,0]},{"header":{"parameterUnit":"m.s-1","parameterCategory":1,"la1":30.2992,"la2":30.254,"lo1":-89.0895,"lo2":-89.0443,"dy":0.0025,"dx":0.0025,"nx":19,"ny":19,"refTime":"2026-05-04T09:00:00:Z","depth":0,"parameterNumber":3,"parameterNumberName":"V-component_of_WINDS"},"data":[0,0,0,-0.9374,-0.9374,-0.9343,-0.9343,-0.9317,-0.9317,0,0,0,0,0,0,0,0,0,0,0,-0.9391,-0.9391,-0.9374,-0.9374,-0.9343,-0.9343,-0.9317,-0.9317,0,0,0,0,0,0,0,0,0,0,0,-0.9391,-0.9391,-0.9392,-0.9373,-0.9343,-0.9343,-0.9317,-0.9335,0,0,0,0,0,0,0,0,0,0,-0.9363,-0.9387,-0.9391,-0.9392,-0.9373,-0.9343,-0.9343,-0.9336,-0.9334,-0.9337,0,-0.9342,0,-0.9329,-0.9316,-0.9316,0,0,0,-0.9367,-0.9388,-0.9373,-0.9392,-0.9373,-0.9343,-0.9355,-0.9335,-0.9333,-0.9335,-0.9341,-0.934,-0.9329,-0.9316,-0.9316,-0.9357,-0.9358,0,0,-0.9369,-0.939,-0.9374,-0.9372,-0.9378,-0.9356,-0.9354,-0.9333,-0.9342,-0.9341,-0.9339,-0.9329,-0.9316,-0.9316,-0.9357,-0.9357,0,0,0,-0.9378,-0.9391,-0.9376,-0.9373,-0.9367,-0.9355,-0.9353,-0.9343,-0.9336,-0.9339,-0.9328,-0.9316,-0.9316,-0.9356,-0.9357,-0.9404,0,0,0,-0.9379,-0.9397,-0.9377,-0.939,-0.9368,-0.9354,-0.9363,-0.9337,-0.9334,-0.9328,-0.9316,-0.9316,-0.9356,-0.9357,-0.9402,-0.9423,0,0,0,-0.939,-0.9398,-0.9397,-0.9391,-0.9379,-0.9354,-0.9346,-0.9336,-0.9328,-0.9316,-0.9316,-0.9355,-0.9356,-0.94,-0.9419,-0.9442,0,0,0,-0.9409,-0.9437,-0.9398,-0.9425,-0.9379,-0.9384,-0.9346,-0.9348,-0.9343,-0.9316,-0.9356,-0.9357,-0.9399,-0.9417,-0.944,-0.9467,-0.9479,0,0,-0.9456,-0.9443,-0.9457,-0.9422,-0.9439,-0.9387,-0.9411,-0.9385,-0.9363,-0.936,-0.9361,-0.9403,-0.9419,-0.9442,-0.9541,-0.9551,0,0,0,-0.948,-0.9491,-0.949,-0.9488,-0.9471,-0.9458,-0.9427,-0.9418,-0.9415,-0.9366,-0.9416,-0.9425,-0.9437,-0.9449,-0.9458,-0.9468,-0.9363,-0.9363,-0.9363,-0.9576,-0.955,-0.9573,-0.9543,-0.9541,-0.9511,-0.9508,-0.949,-0.9461,-0.9474,-0.9473,-0.9536,-0.9551,-0.9557,-0.9569,-0.9483,-0.9483,-0.9484,-0.9484,-0.9644,-0.9656,-0.9621,-0.9631,-0.9603,-0.961,-0.9583,-0.9563,-0.9567,-0.9533,-0.9543,-0.9511,-0.9569,-0.9578,-0.9487,-0.9486,-0.9486,-0.9486,-0.9485,-0.9705,-0.9707,-0.9697,-0.9694,-0.9694,-0.9663,-0.9669,-0.9642,-0.9617,-0.9626,-0.9625,-0.9624,-0.9621,-0.9627,-0.9628,-0.9628,-0.9628,-0.9628,-0.9628,-0.9773,-0.9761,-0.977,-0.9757,-0.9754,-0.9747,-0.9719,-0.9715,-0.9704,-0.9684,-0.9684,-0.9656,-0.958,-0.9562,-0.9632,-0.9631,-0.9631,-0.963,-0.963,-0.9854,-0.9833,-0.9847,-0.9844,-0.9829,-0.9833,-0.9799,-0.9795,-0.9787,-0.9792,-0.9763,-0.971,-0.9695,-0.9688,-0.9673,-0.9767,-0.9767,-0.9767,-0.9767,-0.9907,-0.9897,-0.9908,-0.9907,-0.9901,-0.9874,-0.9893,-0.9873,-0.9848,-0.9843,-0.9825,-0.9803,-0.9797,-0.9785,-0.9776,-0.9762,-0.9877,-0.9877,-0.9877,-0.9957,-0.9946,-0.9967,-0.9944,-0.9931,-0.992,-0.9939,-0.9939,-0.9905,-0.9881,-0.9839,-0.9834,-0.9798,-0.9788,-0.9762,-0.9748,-0.9722,0,0]}]]